Location: Bonita Ravine
(32.8606°N, 116.4533°W)
Time: 02:08:59
(UTC+00:00)

Daily predictions for brighter satellites

Satellite Brightness Start Highest point End
(mag) Time Altitude Azimuth Time Altitude Azimuth Time Altitude Azimuth
Cosmos 2344 4.1 03:04:14 10° S 03:11:29 36° ESE 03:18:02 10° NE
IRS-1C Rocket 4.3 03:09:55 10° SSE 03:15:03 57° ENE 03:20:11 10° N
Cosmos 2061 Rocket 4.1 03:09:17 10° S 03:15:29 84° W 03:21:42 10° N
CSL-04 Rocket 3.8 03:12:43 10° SSE 03:17:52 57° ENE 03:23:05 10° N
Cosmos 1400 Rocket 3.0 03:15:47 10° NNW 03:19:40 74° W 03:23:34 10° S
Cosmos 1544 3.8 03:17:03 10° NNE 03:20:17 33° E 03:23:29 10° SSE
CENTAUR R/B 3.4 03:15:18 10° NNW 03:23:54 73° ENE 03:32:57 10° SE
Cosmos 2227 Rocket 3.6 03:19:40 10° N 03:24:09 23° ENE 03:28:31 10° ESE
Cosmos 1151 Rocket 3.0 03:21:07 10° S 03:25:21 66° E 03:29:35 10° NNE
deb Chang Zheng 4 3.7 03:22:23 10° S 03:26:29 70° WSW 03:30:36 10° NNW
Cosmos 1980 Rocket 3.2 03:22:43 10° SSE 03:27:04 23° E 03:31:25 10° NE
COSMOS 2487 3.4 03:25:25 10° NNW 03:28:22 40° WSW 03:31:17 10° S
ASTRO E2 2.6 03:24:46 10° W 03:28:41 72° S 03:32:28 11° E
Resurs 1-3 4.2 03:25:59 10° SE 03:30:02 38° ENE 03:34:06 10° N
Cosmos 2369 4.3 03:29:55 10° SSE 03:34:53 33° ESE 03:39:53 10° NE
Cosmos 1666 Rocket 4.0 03:31:08 10° N 03:35:21 43° E 03:39:21 11° SSE
USA 238 DEB 4.3 03:28:09 10° NNW 03:35:25 54° NE 03:42:07 14° SE
USA 238 4.3 03:28:17 10° NNW 03:35:31 53° NE 03:42:12 14° SE
Cosmos 1805 Rocket 4.0 03:31:45 10° NNW 03:36:09 64° W 03:40:30 10° S
SL-12 R/B (Aux Motor) 4.2 03:33:00 10° SW 03:37:59 86° SSE 03:40:11 10° NE
USA 234 4.2 03:32:43 10° SSE 03:38:49 42° SW 03:44:58 10° WNW
Cosmos 44 3.0 03:34:43 10° NNW 03:39:03 76° ENE 03:42:47 14° SSE
SJ 16-02 3.0 03:39:52 14° ESE 03:40:29 14° E 03:42:44 10° ENE
Gbstr 26 Del rocket 4.1 03:33:30 10° NW 03:40:57 78° NE 03:46:04 16° SE
Okean O Rocket 4.3 03:38:59 10° SW 03:41:43 16° W 03:44:28 10° NW
Cosmos 1633 Rocket 3.5 03:40:02 10° N 03:44:11 43° E 03:47:27 15° SSE
JB-3 4.4 03:40:05 10° NNE 03:44:14 66° E 03:48:19 10° S
H-2A R/B 2.8 03:41:27 10° S 03:45:51 75° WSW 03:50:09 10° NNW
Cosmos 1697 Rocket 2.6 03:40:18 10° SSW 03:45:57 80° ESE 03:51:37 10° NNE
CZ-4 R/B 3.9 03:43:14 10° SW 03:46:09 20° W 03:49:08 10° NW
OAO 3 Rocket 3.5 03:43:08 10° W 03:48:01 67° N 03:52:53 10° E
Cosmos 2360 4.1 03:43:19 10° SSW 03:48:59 80° ESE 03:54:41 10° NNE
Landsat 7 4.0 03:46:15 14° SSE 03:50:06 52° ENE 03:54:42 10° N
Sich 1 3.9 03:48:39 10° NNW 03:52:52 50° W 03:57:00 10° SSW
Cosmos 1515 4.2 03:50:29 17° SSE 03:53:01 39° E 03:56:32 10° NNE
Cosmos 1470 Rocket 4.4 03:50:58 10° NNE 03:54:50 31° E 03:56:45 22° ESE
Cosmos 1570 Rocket 4.0 03:50:23 10° NNW 03:55:38 81° ENE 03:59:57 16° SSE
Resurs 01 Rocket 2.4 03:53:43 20° SE 03:56:07 36° ENE 04:00:09 10° N
Cosmos 1486 Rocket 4.0 03:52:23 10° SSW 03:57:42 81° ESE 04:02:59 10° NNE
SJ-6B 3.6 03:54:08 10° S 03:57:52 49° W 04:01:33 10° NNW
Tsikada Rocket 4.4 03:53:44 10° NNW 03:59:55 63° W 04:06:00 10° S
Cosmos 1814 Rocket 4.3 03:55:51 10° NNW 04:00:55 64° WSW 04:05:46 11° S
Cosmos 2297 Rocket 2.2 03:55:41 10° NNW 04:01:21 77° ENE 04:05:25 19° SSE
Cosmos 1315 Rocket 2.7 03:57:41 10° N 04:01:45 87° E 04:04:40 18° S
Cosmos 1515 Rocket 3.7 03:58:59 15° SSE 04:02:23 52° E 04:06:38 10° NNE
ARGOS Delta rocket 4.1 03:59:22 10° NNE 04:04:49 65° E 04:10:05 10° S
Cosmos 1340 2.8 04:03:00 22° SSE 04:05:10 51° E 04:08:48 10° NNE
Cosmos 1184 Rocket 3.1 04:05:15 36° ESE 04:05:28 36° E 04:08:16 10° NNE
Cosmos 389 Rocket 3.9 04:03:44 10° NNE 04:06:28 21° ENE 04:06:38 21° E
Cosmos 405 3.1 04:03:41 10° N 04:07:00 49° E 04:08:03 35° SE
Okean-O 4.2 04:03:52 10° SSW 04:07:52 34° W 04:11:53 10° NNW
ATLAS 5 CENTAUR R/B 3.3 03:55:44 10° W 04:08:00 27° SSW 04:11:26 17° SSE
SL-16 R/B 4.1 04:15:42 12° E 04:15:42 12° E 04:16:42 10° ENE
Centaur AC-72 4.5 04:12:04 10° SW 04:15:51 17° S 04:17:53 15° SSE
IGS 5A 4.4 04:14:25 12° S 04:18:02 46° W 04:22:03 10° NNW
Cosmos 1743 3.2 04:16:13 10° N 04:19:46 39° E 04:20:13 38° E
Meteor 1-27 Rocket 3.8 04:15:50 10° S 04:21:34 87° W 04:27:25 10° N
CZ-4B R/B 2.3 04:20:39 10° N 04:23:42 45° WNW 04:26:12 14° SSW
Cosmos 1503 Rocket 3.9 04:21:36 10° SSW 04:26:50 87° ESE 04:32:09 10° NNE
ATLAS 2AS CENTAUR R/B 2.9 04:23:22 10° SSW 04:31:10 78° ESE 04:38:52 10° NNE
ERS-1 Rocket 4.4 04:32:43 21° E 04:33:22 21° ENE 04:37:07 10° NNE
Cosmos 2278 3.7 04:30:19 23° S 04:33:45 58° ESE 04:39:18 10° NNE
SPOT 1/Viking Rocket 3.4 04:34:07 34° SSE 04:36:24 85° ENE 04:41:35 10° N
H-2A R/B 4.3 04:36:05 10° NNW 04:39:19 23° WNW 04:42:34 10° WSW
Cosmos 2219 3.1 04:33:50 10° NNW 04:39:28 85° WSW 04:41:46 37° SSE
Meteor 1-11 Rocket 4.0 04:36:10 10° NNW 04:42:07 72° W 04:45:33 26° S
Okean 1 3.1 04:44:53 70° ESE 04:44:57 70° E 04:48:57 10° NNE
RESURS DK-1 2.2 04:45:24 56° SSW 04:46:13 86° ESE 04:50:21 10° NNE
Cosmos 2082 3.9 04:41:17 10° N 04:46:46 53° ENE 04:48:04 43° ESE
Cosmos 1464 Rocket 4.3 04:42:02 11° SSW 04:48:01 66° W 04:54:10 10° N
Cosmos 1536 3.1 04:44:36 10° NNW 04:48:35 64° W 04:49:24 50° SSW
Cosmos 2263 Rocket 3.3 04:46:46 10° N 04:51:26 27° ENE 04:52:15 26° ENE
SL-4 R/B 2.6 04:53:08 10° NW 04:57:29 49° NE 04:57:41 49° NE
Ariane Rocket 3.4 04:58:25 38° SSW 05:00:09 58° W 05:05:09 10° NNW
CZ-2C R/B 3.8 05:00:57 10° NNE 05:05:24 63° E 05:05:24 63° E
Cosmos 2227 Rocket 3.2 05:03:02 10° NW 05:08:16 40° WSW 05:10:21 29° SSW
ASTRO E2 4.2 05:05:01 10° W 05:07:05 27° WSW 05:07:05 27° WSW
Cosmos 1634 Rocket 4.0 05:08:17 53° ESE 05:08:55 55° E 05:14:57 10° NNE
Cosmos 1092 Rocket 4.1 05:03:37 10° N 05:09:36 51° E 05:10:09 49° E
Cosmos 1980 Rocket 3.5 05:05:35 10° SW 05:10:45 37° WNW 05:15:59 10° N
Cosmos 1933 Rocket 4.2 05:06:43 10° NNW 05:11:03 50° W 05:11:39 46° WSW
Nadezhda 4 Rocket 3.9 05:04:57 10° N 05:11:09 83° W 05:12:52 50° S
SPOT 5 3.0 05:13:35 65° E 05:13:49 66° ENE 05:19:00 10° N
Helios 1A Rocket 3.4 05:17:41 55° NNW 05:17:41 55° NNW 05:20:52 10° NNW
Gblst 52 Del rocket 4.4 05:10:09 10° SW 05:17:18 77° SE 05:23:30 10° NE
Cosmos 1975 4.4 05:14:27 10° N 05:16:41 27° NNE 05:16:41 27° NNE
Terra 2.5 05:19:10 43° NE 05:19:10 43° NE 05:23:04 10° N
SJ 16-02 2.7 05:16:43 24° WSW 05:18:37 36° WNW 05:22:41 10° N
Cosmos 2322 Rocket 3.3 05:20:36 30° ENE 05:20:36 30° ENE 05:23:51 10° NE
Meteor 2-14 Rocket 4.3 05:12:36 10° N 05:18:42 87° W 05:19:53 61° S
Meteor 2-4 Rocket 3.6 05:22:05 74° SE 05:22:28 78° E 05:28:11 10° N
Milstar 3 Cent rocket 4.3 05:13:17 10° W 05:26:03 32° SW 05:28:23 29° SSW
Cosmos 783 Rocket 4.4 05:24:04 10° NNW 05:29:00 79° NNE 05:29:00 79° NNE
SPOT 3 Rocket 4.1 05:30:22 45° WSW 05:30:56 48° W 05:35:54 10° NNW
Timation 2 Rocket 4.0 05:24:28 10° NNW 05:31:10 83° WSW 05:32:15 65° S
OAO 3 Rocket 3.7 05:26:44 10° WNW 05:30:39 56° W 05:30:39 56° W
Resurs 01 Rocket 4.0 05:31:16 14° WSW 05:32:41 15° W 05:35:18 10° WNW
Spot 2 Rocket 3.5 05:34:06 73° WNW 05:34:06 73° WNW 05:38:55 10° NNW
Cosmos 2026 Rocket 3.8 05:29:35 10° N 05:35:47 73° E 05:35:58 73° E
Cosmos 773 Rocket 4.3 05:39:35 10° NNW 05:44:13 63° WNW 05:44:13 63° WNW
Meteor 2-8 Rocket 4.4 05:48:48 71° WSW 05:49:13 74° W 05:55:19 10° N
Cosmos 1627 Rocket 4.5 05:49:16 10° N 05:55:30 74° W 05:55:40 74° WSW
SL-16 R/B 2.5 05:57:29 63° WNW 05:57:30 63° WNW 06:03:08 10° NNE
USA 215 3.1 05:51:47 10° NE 05:58:09 81° ESE 05:58:09 81° ESE
ERS-1 Rocket 4.3 06:12:43 33° WNW 06:12:43 33° WNW 06:16:28 10° NNW
Cosmos 2279 Rocket 4.1 06:12:36 68° WNW 06:12:36 68° WNW 06:18:32 10° N
ARIANE 5 R/B 4.3 06:15:52 31° NW 06:15:52 31° NW 06:18:26 10° NNW
Cosmos 2360 Rocket 3.1 06:25:20 44° NNE 06:25:20 44° NNE 06:29:06 10° NNE
Cosmos 2263 Rocket 3.6 06:30:22 10° NW 06:33:56 29° WNW 06:33:56 29° WNW
ATLAS CENTAUR R/B 4.2 06:36:02 10° NNE 06:37:56 15° NE 06:37:56 15° NE
ATLAS 3B R/B 3.0 06:48:47 10° NNW 06:55:31 74° NW 06:55:31 74° NW
Terra 4.5 06:58:03 12° WNW 06:58:03 12° WNW 06:58:54 10° WNW
Cosmos 2322 Rocket 4.0 07:02:21 23° WNW 07:02:47 24° WNW 07:07:14 10° N
Cosmos 2333 Rocket 3.4 07:07:35 39° N 07:07:35 39° N 07:11:06 10° NNE
Cosmos 1844 Rocket 4.0 07:09:54 10° NNW 07:13:07 36° NNW 07:13:07 36° NNW
CZ-4C R/B 4.2 07:18:52 10° NNW 07:25:40 34° NE 07:28:18 28° E
Cosmos 2219 Rocket 3.5 07:29:39 36° N 07:29:39 36° N 07:33:02 10° NNE
ADEOS Rocket 3.9 07:50:02 40° NNW 07:50:02 40° NNW 07:53:41 10° NNW
Cosmos 2237 Rocket 3.7 07:58:41 30° NE 07:58:41 30° NE 08:01:38 10° NNE
COSMOS 2428 4.0 08:00:10 35° NNW 08:00:10 35° NNW 08:03:49 10° N
USA 267 3.7 08:11:25 55° NE 08:11:43 55° NE 08:18:05 10° NNW
Resurs 1-4 Rocket 4.3 08:14:13 10° NE 08:16:15 17° ENE 08:16:15 17° ENE
ATLAS CENTAUR R/B 4.4 08:13:20 10° NW 08:13:55 13° NW 08:13:55 13° NW
Cosmos 2315 Rocket 4.5 08:34:57 57° NE 08:34:57 57° NE 08:40:04 10° N
Cosmos 2278 Rocket 3.2 08:28:28 10° N 08:32:36 42° NNE 08:32:36 42° NNE
SL-16 R/B 3.5 08:45:29 34° ENE 08:45:29 34° ENE 08:49:10 10° NE
NOSS 3-1 (A) 4.1 08:41:20 10° NNW 08:49:24 89° ENE 08:50:03 79° SE
COSMOS 2455 4.1 08:57:22 32° E 08:57:22 32° E 09:01:42 10° NE
Meteor 1-24 Rocket 4.3 09:05:48 52° NE 09:05:48 52° NE 09:10:11 10° NNE
ATLAS 5 CENTAUR R/B 4.0 09:00:32 10° NW 09:04:57 31° NW 09:04:57 31° NW
Meteor 2-10 Rocket 4.3 09:02:44 10° N 09:06:51 50° N 09:06:51 50° N
Lacrosse 5 3.0 09:14:24 41° N 09:14:24 41° N 09:18:02 10° NNE
CZ-4C R/B 3.4 09:06:54 10° NW 09:13:24 52° W 09:13:24 52° W
Lacrosse 5 rocket 3.7 09:19:29 21° NNE 09:19:29 21° NNE 09:20:54 10° NNE
Meteor 2-5 Rocket 4.1 09:27:59 58° NNW 09:27:59 58° NNW 09:32:45 10° N
CZ-2D R/B 2.4 09:24:37 10° N 09:29:03 61° N 09:29:03 61° N
AQUA 4.4 09:32:26 10° NNE 09:36:12 54° NE 09:36:12 54° NE
Cosmos 2237 Rocket 4.1 09:40:30 18° WNW 09:40:30 18° WNW 09:44:19 10° NNW
Cosmos 2154 Rocket 4.4 09:46:28 10° N 09:52:43 60° E 09:54:59 38° SE
CRYOSAT 2 4.4 09:55:02 74° NNE 09:55:02 74° NNE 09:59:35 10° N
Resurs 1-4 Rocket 2.9 09:52:56 10° N 09:57:19 39° WNW 09:57:19 39° WNW
Cosmos 292 Rocket 3.9 10:00:36 68° NNW 10:00:36 68° NNW 10:04:53 10° NNE
SL-16 R/B 2.4 10:00:07 65° S 10:01:03 79° WSW 10:07:17 10° NNW
Cosmos 1943 Rocket 2.1 09:59:30 10° NNW 10:05:12 84° ENE 10:06:32 55° SSE
Cosmos 2297 4.0 10:01:33 10° NNW 10:07:17 66° ENE 10:10:28 27° SE
SEDSat Delta rocket 4.3 10:07:15 47° SSE 10:07:28 47° SSE 10:13:55 10° E
Cosmos 2228 4.1 10:06:06 10° N 10:10:12 40° E 10:11:19 34° ESE
Cosmos 1536 Rocket 4.3 10:13:47 43° NW 10:13:47 43° NW 10:17:10 10° N
ADEOS II 2.1 10:07:58 10° N 10:13:08 59° WNW 10:13:19 59° W
IDEFIX/ARIANE 42P 2.4 10:08:12 10° N 10:13:28 73° WNW 10:13:52 69° WSW
Cosmos 2074 Rocket 4.0 10:10:18 10° NNW 10:16:27 57° W 10:17:15 53° WSW
OAO 2 Rocket 3.3 10:16:57 63° SE 10:16:57 63° SE 10:21:36 10° E
Cosmos 2278 Rocket 4.4 10:14:08 10° WNW 10:14:24 11° WNW 10:14:24 11° WNW
Cosmos 1455 4.0 10:19:36 10° NNW 10:21:07 21° NW 10:21:07 21° NW
Cosmos 1295 Rocket 4.4 10:17:24 10° N 10:23:45 81° W 10:26:12 40° S
Cosmos 2327 Rocket 4.5 10:17:33 10° N 10:23:59 89° E 10:27:06 33° S
NOSS 3-3 (A) 3.6 10:23:18 59° SW 10:24:25 81° WNW 10:30:30 10° NNE
NOSS 3-3 (C) 3.6 10:23:24 59° SW 10:24:31 83° WNW 10:30:36 10° NNE
Meteor 1-21 Rocket 4.2 10:23:47 49° S 10:25:25 85° E 10:31:02 10° N
Cosmos 614 Rocket 3.9 10:20:20 10° NNW 10:25:33 83° ENE 10:27:52 34° SSE
SL-16 R/B 3.6 10:27:21 22° WNW 10:28:06 22° WNW 10:32:30 10° N
Cosmos 1271 Rocket 2.9 10:24:34 10° N 10:27:50 63° NNW 10:27:50 63° NNW
IRS-1D 3.5 10:23:31 10° NNE 10:28:51 90° NNE 10:30:15 51° SSW
DNEPR-1 R/B 3.2 10:29:53 83° SSW 10:30:04 90° ESE 10:34:26 10° NNE
Cosmos 2251 Rocket 4.2 10:25:37 10° N 10:30:46 52° ENE 10:35:55 10° SSE
Cosmos 2184 Rocket 4.3 10:25:51 10° NNW 10:31:40 43° W 10:32:27 41° WSW
Cosmos 2369 Rocket 3.0 10:26:25 10° N 10:31:50 49° ENE 10:37:13 10° SE
Cosmos 1610 Rocket 4.4 10:29:10 10° NNW 10:35:14 66° W 10:37:27 39° SSW
COSMOS 2441 4.3 10:33:10 10° N 10:38:00 69° WNW 10:38:59 53° SW
MOS 1 Rocket 4.2 10:39:46 29° WNW 10:39:46 29° WNW 10:42:31 10° NNW
COSMOS 2455 3.9 10:40:30 27° W 10:42:13 32° WNW 10:47:33 10° N
Cosmos 1606 Rocket 3.8 10:38:38 10° N 10:43:00 66° E 10:45:25 25° SSE
Cosmos 2181 Rocket 4.1 10:42:09 22° S 10:46:19 74° E 10:52:29 10° N
Helios 1B rocket 2.5 10:44:49 10° NNE 10:48:53 72° ESE 10:50:15 40° S
Cosmos 962 Rocket 4.4 10:43:50 10° N 10:49:58 86° W 10:54:49 17° S
Cosmos 1328 3.7 10:49:40 59° SW 10:50:12 70° W 10:54:10 10° N
Cosmos 1603 3.7 10:49:16 38° SW 10:51:21 67° WNW 10:57:00 10° NNE
ALOS 3.2 10:48:53 10° NNE 10:53:22 45° E 10:56:51 16° SSE
Helios 1A 3.8 10:56:14 33° W 10:56:14 33° W 10:59:40 10° NNW
MOS 1-B Rocket 4.2 10:50:54 10° SSE 10:56:30 64° ENE 11:02:04 10° N
Lacrosse 5 4.4 10:56:01 10° NW 10:57:01 10° NNW 10:58:02 10° NNW
CZ-2C R/B 3.1 10:55:03 10° NNE 11:00:01 54° E 11:04:03 14° S
Chunghua 1 4.5 11:01:47 32° WNW 11:03:15 72° N 11:06:48 10° E
Cosmos 1420 Rocket 4.2 11:00:33 21° S 11:03:57 66° ESE 11:09:06 10° NNE
Lacrosse 4 Rocket 2.5 11:03:46 18° S 11:06:33 41° ESE 11:10:34 10° NE
Cosmos 1892 Rocket 3.8 11:10:34 31° SW 11:12:23 51° W 11:16:45 10° N
Cosmos 1371 Rocket 4.0 11:10:42 26° SSW 11:13:34 68° WNW 11:18:44 10° N
GPS 2-04 Rocket1 2.3 11:12:57 35° W 11:14:16 75° NNW 11:17:48 10° ENE
Cosmos 1825 3.6 11:11:17 10° SSE 11:14:41 36° E 11:18:07 10° NNE
Cosmos 407 Rocket 3.6 11:11:59 10° NNW 11:17:18 80° ENE 11:22:31 10° SSE
Meteor 1-11 4.3 11:16:50 17° SSW 11:21:21 70° W 11:27:08 10° N
Cosmos 1726 Rocket 3.7 11:18:07 10° NNW 11:22:24 53° W 11:25:45 16° SSW
Cosmos 1943 4.2 11:19:48 21° WSW 11:22:36 31° WNW 11:27:38 10° N
Meteor 2-1 Rocket 4.5 11:21:35 10° NNW 11:27:02 47° W 11:32:21 10° SSW
Cosmos 1140 Rocket 3.4 11:22:00 10° NNW 11:27:15 77° WSW 11:32:27 10° S
CZ-2C R/B 3.4 11:28:16 10° SSE 11:29:04 11° SE 11:29:52 10° SE
SeaSat 1 2.6 11:26:21 10° NNE 11:31:17 76° ESE 11:35:58 11° SSW
Cosmos 1892 2.8 11:29:36 20° SSW 11:32:03 54° W 11:35:46 10° N
Cosmos 2366 rocket 4.0 11:27:28 10° NNW 11:33:33 65° W 11:39:41 10° S
Cosmos 1484 Rocket 4.0 11:29:53 10° NNE 11:33:34 41° E 11:37:17 10° S
BREEZE-M DEB (TANK) 4.1 11:32:29 17° W 11:34:40 42° NNW 11:42:06 10° NE
Cosmos 2341 Rocket 4.5 11:29:12 10° NNW 11:35:08 42° W 11:41:02 10° SSW
SL-8 Rocket 4.3 11:34:34 10° NNW 11:40:33 46° W 11:46:30 10° SSW
Cosmos 1408 3.4 11:38:52 19° SW 11:40:52 32° W 11:44:10 10° NNW
IRS-1C 4.3 11:35:40 10° N 11:40:53 58° WNW 11:46:03 10° SSW
Meteor 2-20 4.5 11:39:17 10° S 11:45:27 90° E 11:51:39 10° N
DELTA 2 DEB (DPAF) 4.1 11:42:23 10° S 11:46:47 80° WSW 11:51:13 10° NNW
FENGYUN 3A 4.3 11:43:26 10° N 11:48:24 39° WNW 11:53:13 11° SW
ARIANE 5 R/B 2.7 11:47:45 10° N 11:52:37 51° WNW 11:57:26 10° SSW
